Clines Corner, NM

12:15 AM MDT on October 19, 2017 (GMT -0600)
Clines Corner

Weather History for KCQC - August, 2013

Change the Weather History Date:

Monday, August 26, 2013

  Actual Average (KSAF) Record (KSAF)
Temperature  
Mean Temperature 68 °F -  
Max Temperature 82 °F 84 °F 93 °F (2002)
Min Temperature 57 °F 56 °F 46 °F (2001)
Cooling Degree Days 4    
Growing Degree Days 18 (Base 50)    
Moisture  
Dew Point 48 °F    
Average Humidity 51    
Maximum Humidity 81    
Minimum Humidity 29    
Precipitation  
Precipitation 0.00 in - - ()
Sea Level Pressure  
Sea Level Pressure 30.10 in    
Wind  
Wind Speed 9 mph (SSE)    
Max Wind Speed 18 mph    
Max Gust Speed 24 mph    
Visibility 10 miles    
Events      
Averages and records for this station are not official NWS values.
T = Trace of Precipitation, MM = Missing Value Source: NWS Daily Summary

Daily Weather History Graph

Daily Weather History Graph

Search for Another Location

Airport or City:

Trip Planner

Search our weather history database for the weather conditions in past years. The results will help you decide how hot, cold, wet, or windy it might be!

Date:

Astronomy

Aug. 26, 2013 Rise Set
Actual Time 6:31 AM MDT 7:36 PM MDT
Civil Twilight 6:05 AM MDT 8:03 PM MDT
Nautical Twilight 5:33 AM MDT 8:33 PM MDT
Astronomical Twilight 5:01 AM MDT 9:06 PM MDT
Moon 11:05 PM MDT (8/26) 12:19 PM MDT (8/26)
Length of Visible Light 13h 58m
Length of Day
13h 05m
Waning Gibbous, 66% of the Moon is Illuminated
Aug 26
Waning Gibbous
Aug 28
Last Quarter
Sep 5
New
Sep 12
First Quarter
Sep 19
Full

Hourly Weather History & Observations

Time (MDT) Temp. Dew Point Humidity Pressure Visibility Wind Dir Wind Speed Gust Speed Precip Events Conditions
12:53 AM 62.1 °F 50.0 °F 65% 30.13 in 10.0 mi South 9.2 mph - N/A   Mostly Cloudy
1:53 AM 61.0 °F 50.0 °F 67% 30.12 in 10.0 mi South 9.2 mph - N/A   Scattered Clouds
2:53 AM 61.0 °F 50.0 °F 67% 30.12 in 10.0 mi South 10.4 mph - N/A   Clear
3:53 AM 60.1 °F 50.0 °F 69% 30.11 in 10.0 mi South 8.1 mph - N/A   Clear
4:53 AM 57.9 °F 50.0 °F 75% 30.12 in 10.0 mi South 8.1 mph - N/A   Clear
5:53 AM 57.0 °F 50.0 °F 77% 30.14 in 10.0 mi South 9.2 mph - N/A   Clear
6:53 AM 57.0 °F 51.1 °F 81% 30.15 in 10.0 mi South 5.8 mph - N/A   Clear
7:53 AM 64.0 °F 53.1 °F 67% 30.14 in 10.0 mi Calm Calm - N/A   Clear
8:53 AM 69.1 °F 52.0 °F 54% 30.15 in 10.0 mi South 8.1 mph - N/A   Clear
9:53 AM 72.0 °F 51.1 °F 48% 30.16 in 10.0 mi Variable 3.5 mph - N/A   Clear
10:53 AM 75.9 °F 50.0 °F 40% 30.14 in 10.0 mi Variable 3.5 mph - N/A   Mostly Cloudy
11:53 AM 75.9 °F 48.9 °F 38% 30.13 in 10.0 mi Variable 5.8 mph - N/A   Partly Cloudy
12:53 PM 75.0 °F 48.0 °F 38% 30.12 in 10.0 mi South 12.7 mph - N/A   Overcast
1:53 PM 77.0 °F 48.9 °F 37% 30.10 in 10.0 mi South 15.0 mph 21.9 mph N/A   Scattered Clouds
2:53 PM 78.1 °F 46.0 °F 32% 30.07 in 10.0 mi SSE 11.5 mph 21.9 mph N/A   Mostly Cloudy
3:53 PM 80.1 °F 46.9 °F 31% 30.06 in 10.0 mi SE 11.5 mph 20.7 mph N/A   Partly Cloudy
4:53 PM 80.1 °F 45.0 °F 29% 30.05 in 10.0 mi South 15.0 mph 20.7 mph N/A   Scattered Clouds
5:53 PM 78.1 °F 45.0 °F 31% 30.05 in 10.0 mi SSE 17.3 mph - N/A   Mostly Cloudy
6:53 PM 75.0 °F 44.1 °F 33% 30.06 in 10.0 mi SSE 18.4 mph 24.2 mph N/A   Clear
7:53 PM 70.0 °F 42.1 °F 36% 30.06 in 10.0 mi SSE 9.2 mph - N/A   Clear
8:53 PM 66.0 °F 42.1 °F 42% 30.07 in 10.0 mi SSE 5.8 mph - N/A   Clear
9:53 PM 64.0 °F 46.0 °F 52% 30.08 in 10.0 mi SSE 9.2 mph - N/A   Clear
10:53 PM 63.0 °F 48.0 °F 58% 30.08 in 10.0 mi SSE 9.2 mph - N/A   Clear
11:53 PM 61.0 °F 48.0 °F 62% 30.08 in 10.0 mi SSE 6.9 mph - N/A   Clear